ELEKTRON 1 DEB, 750

Orbit data source: Space-Track

ELEKTRON 1 DEB, 750 is space debris in LEO originally from a launch on Thu, 30 Jan 1964 UTC launched from the Tyuratam Missile And Space Complex (TTMTR). Debris objects in space refer to the collection of defunct objects orbiting the Earth. Examples of debris include non-operational satellites, rocket bodies, and fragments generated from explosions, collisions, or faulty payload assembly.

Loading next visibility...
ELEKTRON 1 DEB details
Identifier
750, 1964-006C
Orbit
LEO
Last TLE update1 day ago
Origin
Flag of CISOKB-1 (CIS)
ManufacturerOKB-1
MissionSpacecraft
Bus & MotorADAPTER, Unknown motor
MassUnknown
Launch date (UTC)
1964-01-30 (61 years ago)
Launch vehicleUnknown
Launch site
Tyuratam Missile And Space Complex (TTMTR)
Object type
Payload
Rocket body
Debris
Shape & HBRUnknown
Radar Cross SectionMedium (>0.1 m² and <1 m²)

Expand to show TLE details & history

TLE from 1 day ago
0 ELEKTRON 1 DEB
1   750U 64006C   25037.49724193  .00032702  00000-0  35013-2 0  9992
2   750  60.7575 102.2805 1462020 187.3970 170.3066 12.32055334785092
Epoch: 2025-02-06T11:56Z
Definitive object data (Epoch: 2025-02-06T11:56:01.702Z)
Latitude-0.00008°
Longitude146.40039°
Altitude2,687.1 km
Speed6.135 km/s
True Right ascension06h 49m 07s
True Declination0° 00' 00"
Sunlit
Object was in full shadow at TLE epoch
Visualization TLE readout
Latitude-47.96627°
Longitude105.54894°
Altitude1,877.847 km
Speed6.807 km/s
Apparent Right ascension04h 31m 18s
Apparent Declination-44° 29' 42"
Sunlit
Object is in daylight
Visualization observer readout
Local Sidereal Time17:00:14
Azimuth132.903° SE
Elevation-82.957°
Doppler factor1
Orbital elements
Apogee altitude2,697.248 km
Perigee altitude382.055 km
Semi-major axis7,917.788 km
Eccentricity0.146202
Inclination60.7575°
RAAN102.2805°
Arg. of periapsis187.397°
True anomaly172.69426°
Mean anomaly170.3066°
Eccentric anomaly171.53911°
Mean motion3.08061 °/min
BSTAR0.0035013
Orbital period116.86 mins
Loading maneuver chart data...

ELEKTRON 1 DEB Visibility forecast

Observer location: undefined°, undefined

Span
Click to sort rows by Start time (UTC) header in descending order
Start Az.
Max El. time (UTC)
Max El. Az.
Max El.
End time (UTC)
End Az.
5 mins2025-02-07 15:58:48.272Z289.275° WNW2025-02-07 16:01:48.272Z254.489° W14.755°2025-02-07 16:03:48.272Z224.678° SW
12 mins2025-02-08 03:00:48.272Z126.014° SE2025-02-08 03:06:48.272Z102.122° ESE14.378°2025-02-08 03:12:48.272Z76.382° E
25 mins2025-02-08 04:53:48.272Z188.05° SSW2025-02-08 05:06:48.272Z124.342° SE39.826°2025-02-08 05:18:48.272Z45.788° ENE
24 mins2025-02-08 06:55:48.272Z237.327° WSW2025-02-08 07:09:48.272Z316.305° NNW40.89°2025-02-08 07:19:48.272Z32.561° NE
16 mins2025-02-08 09:04:48.272Z287.897° WNW2025-02-08 09:13:48.272Z336.204° NNW24.141°2025-02-08 09:20:48.272Z27.986° NE
10 mins2025-02-08 11:13:48.272Z328.369° NNW2025-02-08 11:18:48.272Z1.938° NNE18.148°2025-02-08 11:23:48.272Z47.3° ENE
9 mins2025-02-08 13:17:48.272Z334.146° NNW2025-02-08 13:22:48.272Z27.148° NE31.907°2025-02-08 13:26:48.272Z99.283° ESE
|